Regional Weather Roundup
Issued by NWS State College, PA

Home | Current Version | Previous Version | Graphics & Text | Print | Product List | Glossary Off
Versions: 1 2 3 4 5 6 7 8 9 10 11 12 13 14 15 16 17 18 19 20 21 22 23 24 25 26 27 28 29 30 31 32 33 34 35 36 37 38 39 40 41 42 43 44 45 46 47 48 49 50

000
ASUS41 KCTP 221410
RWRCTP

REGIONAL WEATHER ROUNDUP
NATIONAL WEATHER SERVICE STATE COLLEGE PA
1000 AM EDT TUE AUG 22 2017

Note: "fair" indicates few or no clouds below 12,000 feet with no
significant weather and/or obstructions to visibility.

* = STATION THAT DOES NOT REPORT PRECIPITATION /E.G. RAIN...SNOW...ETC/
    THUNDER OR FOG.

PAZ002>004-007>009-013>016-020>023-029>032-221500-
WESTERN PENNSYLVANIA

CITY           SKY/WX    TMP DP  RH WIND       PRES   REMARKS
ERIE           MOSUNNY   83  69  62 SW17G24   29.85F
MEADVILLE      MOSUNNY   78  70  76 SW13G23   29.93F
FRANKLIN*      SUNNY     79  66  65 SW13      29.96F
NEW CASTLE     FAIR      81  71  71 SW8       29.95F
BEAVER COUNTY  SUNNY     81  68  65 SW13G18   29.97F
BUTLER*        SUNNY     79  70  73 S12       29.98F
PITTSBURGH INT PTSUNNY   79  70  74 SW15G21   29.98F
PITTSBURGH     SUNNY     78  68  71 S12       29.99F
INDIANA*       MOSUNNY   79  72  78 SW8       30.03F
LATROBE        SUNNY     79  70  73 SW12G25   30.02F
WASHINGTON CO* SUNNY     79  70  73 S12       30.01S
$$

PAZ004>006-010>012-017>019-024>028-033>037-041-042-045-046-049>053-221500-
CENTRAL PENNSYLVANIA

CITY           SKY/WX    TMP DP  RH WIND       PRES   REMARKS
BRADFORD       MOSUNNY   76  69  79 SW12      29.98F
DUBOIS         SUNNY     77  67  71 SW13G21   29.99F
CLEARFIELD     SUNNY     76  69  79 SW8       30.01F
JOHNSTOWN      SUNNY     76  67  73 SW10      30.07F
ALTOONA        SUNNY     78  70  76 SW9       30.04F
STATE COLLEGE  SUNNY     77  70  78 SW9       30.01F
WILLIAMSPORT   CLOUDY    75  72  90 E6        29.96F
SELINSGROVE    SUNNY     79  73  82 VRB5      29.99F
FT INDIANTOWN  CLOUDY    72  72 100 CALM      30.02F FOG
CAPITAL CITY   SUNNY     80  70  71 N3        30.01F
HARRISBURG     SUNNY     80  73  79 E3        30.00F
YORK           SUNNY     80  74  81 NW3       30.01F
$$

PAZ038>040-043-044-047-048-054-055-060>062-067>071-221500-
EASTERN PENNSYLVANIA

CITY           SKY/WX    TMP DP  RH WIND       PRES   REMARKS
SCRANTON       SUNNY     79  70  74 SW5       30.00F
MOUNT POCONO   SUNNY     76  70  82 W8        30.06F
ALLENTOWN      MOSUNNY   79  71  76 CALM      30.01F
QUAKERTOWN*    CLOUDY    75  73  94 SW6       30.03F
READING        SUNNY     79  74  84 CALM      30.00F
LANCASTER      CLOUDY    76  74  93 S5        30.02F FOG
COATESVILLE    CLOUDY    77  75  94 W5        30.05F FOG
POTTSTOWN      CLOUDY    75  73  93 SW6       30.04F FOG
BLUE BELL      CLOUDY    77  73  88 SW5       30.03F
DOYLESTOWN     CLOUDY    77  73  87 SW6       30.02F
WILLOW GROVE   NOT AVBL
NORTH PHILA    CLOUDY    81  74  79 SW6       30.03F
PHILADELPHIA   CLOUDY    80  73  79 SW10      30.02F
$$




USA.gov is the U.S. government's official web portal to all federal, state and local government web resources and services.